Wind_Speed
6 5 4 4 4 3 3 3 4 4 4 5 6 8 8 7 8 8 9 9 8 8 8 8 7 7 6 6 7 7 6 5 6 6 7 7 7 7 7 7 7 7 7
7 6 6 5 5 4 4 4 4 4 5 5 6 7 7 8 9 9 9 9 9 9 9 9 9 8 7 8 7 7 7 7 8 8 8 8 8 8 8 8 8 9 9
8 8 7 6 6 6 5 4 3 3 4 6 6 7 7 8 9 9 9 10 10 10 10 10 10 9 9 8 8 9 9 9 9 9 10 10 10 10 10 10 10 11 11
10 9 8 7 7 6 6 5 4 4 5 5 7 8 8 9 9 9 10 10 11 11 11 11 11 11 11 11 11 11 11 11 11 11 11 12 12 12 12 11 12 12 12
10 9 9 8 7 7 7 6 6 6 5 5 6 8 9 9 10 10 11 11 12 12 12 12 13 13 12 12 12 12 12 12 12 12 13 13 13 13 13 13 13 13 13
10 9 8 8 7 7 7 7 7 7 6 5 5 6 7 8 8 9 10 11 12 12 13 13 13 14 14 14 14 14 14 14 14 14 14 15 15 14 14 14 14 14 14
12 11 9 8 7 7 7 8 8 7 6 6 5 6 6 7 7 7 8 10 11 12 12 13 13 14 15 15 15 16 16 16 16 16 16 17 16 16 16 15 16 16 15
13 12 10 9 8 9 8 8 9 8 7 6 6 6 6 7 7 8 8 9 11 12 13 13 14 14 15 16 16 16 16 17 17 18 18 18 18 18 17 16 16 16 16
13 12 11 10 10 11 10 9 9 9 8 8 8 8 7 7 9 9 10 10 11 11 11 12 13 14 16 17 17 17 17 17 18 17 18 17 18 17 17 18 18 18 18
13 13 13 12 12 12 12 11 11 10 9 9 9 9 9 9 10 10 11 11 12 12 13 13 14 15 16 16 17 17 18 19 18 18 18 18 18 18 19 19 19 19 20
14 13 13 13 14 14 14 13 13 12 11 10 11 11 11 11 11 12 13 13 13 14 14 14 15 16 17 17 17 17 18 19 19 19 19 20 20 20 20 19 19 20 21
14 14 14 15 15 15 15 14 14 14 13 13 13 12 13 13 13 14 15 15 16 16 16 17 17 17 18 18 19 19 19 19 20 21 21 21 21 22 21 20 20 20 22
15 15 15 15 16 16 16 16 16 16 15 15 15 15 15 16 16 16 16 17 18 18 18 19 19 19 19 19 19 19 19 20 21 22 22 23 22 22 22 22 22 22 22
17 17 17 17 17 18 17 18 18 18 18 18 17 17 17 17 18 18 18 19 19 18 19 20 20 19 19 20 19 19 20 21 22 23 23 23 23 23 24 24 23 23 23
17 18 17 18 19 19 19 20 20 20 20 20 19 19 19 20 20 20 20 20 20 20 20 20 20 20 21 21 22 22 22 23 23 24 24 24 24 24 24 25 25 25 24
19 19 19 20 21 21 21 21 21 22 21 22 21 21 21 22 22 22 22 22 22 23 22 22 23 23 24 24 25 24 25 25 25 25 26 26 25 26 26 26 27 27 26
20 20 20 21 21 22 22 23 23 23 23 23 23 23 23 23 23 23 23 23 23 24 23 24 25 25 25 26 26 26 27 27 27 27 27 28 28 28 29 28 28 28 28
22 22 22 23 23 23 23 24 24 24 24 24 24 24 24 24 24 24 24 24 25 25 25 25 25 26 26 27 27 28 28 29 30 30 30 30 30 30 30 29 29 30 30
23 24 24 24 24 24 25 25 25 25 26 25 25 25 24 24 24 24 25 25 26 26 26 26 26 26 27 28 29 29 30 31 31 31 31 31 31 31 30 30 30 30 30
25 25 26 25 25 25 25 26 26 27 26 26 25 25 25 25 25 25 25 26 27 27 27 27 27 27 27 28 29 29 31 31 31 31 32 31 31 31 31 31 31 31 31
26 26 27 27 27 27 27 27 27 28 27 27 27 26 25 25 25 26 26 27 27 27 28 28 28 27 28 28 29 29 30 31 31 31 31 31 31 32 31 31 31 31 32
28 28 28 28 28 28 28 28 28 28 28 28 28 28 27 27 27 27 27 27 28 28 28 28 28 28 27 28 29 30 30 30 31 31 31 31 31 31 32 32 32 32 32
29 28 28 29 29 29 29 29 29 29 29 29 28 27 27 27 27 27 28 29 28 28 28 28 28 28 28 28 28 29 29 30 30 31 31 31 31 31 32 32 32 32 32
30 30 31 30 30 30 30 30 30 30 29 28 28 28 29 29 29 28 27 27 27 28 28 28 28 28 28 28 28 28 28 29 29 30 31 30 30 31 31 32 32 32 32
30 31 31 31 31 30 30 30 30 29 30 29 29 30 29 29 29 28 28 28 28 28 28 28 28 28 28 28 28 28 28 28 28 29 31 31 30 31 31 31 31 31 32
30 30 31 31 30 30 30 30 30 30 31 31 31 31 30 30 30 29 29 29 29 29 30 30 29 29 29 29 29 29 29 29 29 29 30 31 31 31 31 32 32 32 32
Wind_Direction
13 4 7 3 355 335 307 301 293 285 279 267 256 255 255 250 248 250 246 240 235 238 240 240 238 236 239 247 253 255 260 260 258 258 260 257 259 258 256 256 255 250 243
11 8 9 9 4 357 348 329 305 287 281 273 267 265 259 252 249 246 243 242 241 240 242 243 239 239 242 248 255 256 259 262 261 259 258 257 258 258 256 258 259 254 251
12 8 6 1 358 357 353 337 314 295 280 273 266 265 260 255 249 243 242 244 241 240 244 246 242 244 243 249 255 259 261 265 260 261 257 257 258 259 259 258 259 256 255
13 13 6 359 354 351 349 347 322 303 296 278 266 266 262 259 249 243 245 245 241 242 246 248 248 246 249 252 256 259 262 265 262 260 260 262 261 260 259 259 259 258 256
12 7 2 1 357 356 352 338 333 323 314 299 283 271 263 260 256 249 247 246 244 244 247 248 251 252 254 256 260 259 263 265 263 262 261 263 263 261 257 257 258 259 258
360 355 349 351 353 352 350 344 333 334 324 314 295 279 270 266 262 258 255 250 250 252 253 254 255 253 256 259 261 261 264 266 267 266 263 262 263 261 258 257 257 257 257
351 350 343 342 344 344 344 339 335 333 330 322 314 302 284 271 267 269 261 254 254 255 256 261 260 255 255 259 260 259 263 267 268 265 262 262 260 259 258 259 259 257 256
348 348 343 345 349 347 345 341 337 329 321 317 313 307 299 285 278 277 272 265 261 260 259 260 261 259 258 259 259 262 264 265 267 264 260 260 259 257 257 259 258 257 257
340 344 343 343 344 341 339 335 332 326 318 314 307 297 291 289 286 285 285 282 275 272 270 265 262 260 257 257 258 260 263 264 264 263 263 262 259 258 258 258 258 257 257
332 335 336 337 333 329 329 331 331 323 316 312 310 303 293 288 282 282 286 286 280 276 274 271 267 265 264 262 263 264 264 265 263 263 262 260 259 259 259 258 258 258 259
327 329 330 328 324 322 324 324 325 323 318 317 315 310 300 293 286 286 288 287 282 277 275 273 270 270 268 266 266 267 266 265 263 262 263 261 258 258 261 260 258 258 258
321 322 321 320 319 319 318 317 317 318 317 314 313 310 309 302 296 291 288 287 284 280 277 275 271 271 271 268 267 268 268 268 266 265 265 264 260 259 259 260 259 260 259
317 314 313 312 314 315 313 311 311 311 310 309 307 306 306 303 296 294 290 286 283 282 280 276 271 270 270 269 269 270 271 270 269 267 265 265 263 261 260 260 259 260 260
315 312 309 308 309 310 309 308 308 308 306 305 303 301 302 301 296 296 295 291 286 284 284 279 273 271 270 271 273 271 273 272 271 268 266 264 264 261 261 262 262 261 260
310 308 308 307 308 307 306 304 305 305 303 302 300 298 298 298 296 296 294 291 288 287 286 282 277 273 272 271 271 271 272 272 272 268 267 266 265 261 262 263 263 262 261
308 305 304 304 304 303 303 303 302 303 302 301 299 297 297 297 294 294 294 291 289 287 283 280 278 274 273 272 271 271 272 272 272 270 268 267 265 263 262 262 262 262 262
304 303 303 302 302 302 301 299 299 300 301 299 297 295 296 295 294 293 293 291 290 289 284 282 279 273 273 273 271 272 272 272 272 270 269 266 265 265 263 262 262 262 262
300 300 300 300 299 301 300 299 298 298 298 297 295 293 293 293 294 294 293 291 290 288 285 284 279 277 275 274 273 273 273 273 272 271 270 268 265 264 263 263 262 263 262
298 298 298 299 298 299 300 299 297 296 298 297 296 294 292 291 291 292 292 291 290 290 287 285 281 278 276 275 274 273 273 274 274 272 270 268 265 263 262 262 262 263 262
296 296 296 296 297 297 297 297 295 295 295 295 296 295 293 292 291 292 293 292 291 290 289 287 284 282 280 277 275 274 274 275 275 274 271 268 265 264 263 262 262 262 262
295 295 295 294 294 294 294 294 293 293 294 294 294 294 294 292 292 293 293 294 293 290 291 289 286 284 281 279 278 278 277 275 275 273 271 270 268 266 263 262 262 263 263
295 294 293 293 292 293 293 294 293 291 292 292 291 292 293 293 293 292 293 294 294 292 290 289 287 285 283 281 280 279 278 275 273 272 270 269 268 267 263 261 262 263 264
294 293 292 292 292 291 291 292 292 291 291 291 291 292 292 294 294 295 293 293 293 292 291 288 286 286 284 283 283 282 279 277 274 271 270 271 270 268 265 265 265 265 264
292 291 290 290 290 290 290 289 289 289 289 289 290 291 292 293 295 294 293 293 294 293 293 290 287 286 286 285 285 284 280 278 275 274 271 270 269 268 266 265 265 265 264
294 292 289 290 290 290 290 288 287 288 289 290 289 290 291 293 293 291 292 293 293 293 292 291 290 289 288 287 286 284 281 279 277 276 274 271 269 268 267 267 265 264 264
292 293 291 290 290 290 289 288 286 286 287 288 288 289 290 291 291 290 291 292 292 292 292 293 291 288 288 287 286 284 281 280 279 277 274 272 269 268 267 266 265 263 263
Height
5892 5891 5890 5889 5889 5888 5888 5887 5886 5886 5885 5885 5884 5884 5884 5885 5885 5885 5885 5885 5886 5886 5886 5886 5886 5886 5886 5886 5886 5886 5886 5886 5885 5885 5885 5885 5885 5884 5884 5885 5884 5884 5884
5892 5891 5890 5889 5888 5887 5886 5885 5885 5884 5883 5883 5882 5882 5882 5882 5882 5882 5883 5883 5883 5884 5884 5884 5884 5884 5884 5884 5884 5884 5884 5884 5883 5883 5883 5883 5883 5882 5882 5883 5883 5883 5882
5893 5891 5890 5889 5888 5887 5885 5884 5883 5883 5882 5882 5881 5880 5880 5880 5880 5880 5880 5880 5881 5881 5882 5882 5882 5882 5882 5882 5882 5882 5881 5881 5881 5881 5881 5880 5880 5880 5880 5880 5880 5880 5881
5893 5891 5890 5889 5887 5886 5884 5883 5883 5882 5881 5880 5879 5878 5878 5878 5877 5878 5877 5877 5878 5878 5879 5879 5879 5880 5880 5880 5879 5879 5879 5879 5878 5878 5878 5878 5878 5878 5877 5877 5878 5878 5878
5892 5891 5889 5888 5887 5885 5884 5883 5881 5880 5878 5877 5876 5876 5876 5875 5875 5875 5875 5875 5875 5875 5875 5875 5876 5876 5876 5876 5876 5876 5876 5875 5875 5875 5875 5875 5875 5875 5874 5875 5875 5875 5875
5892 5890 5889 5887 5886 5884 5883 5881 5880 5878 5877 5876 5875 5874 5873 5873 5873 5872 5872 5872 5871 5872 5872 5872 5873 5873 5873 5873 5873 5873 5872 5872 5872 5871 5871 5871 5871 5871 5871 5871 5871 5872 5872
5891 5889 5887 5886 5885 5883 5882 5880 5879 5877 5876 5874 5873 5872 5871 5871 5871 5869 5869 5869 5869 5869 5869 5869 5869 5869 5869 5869 5869 5868 5868 5868 5867 5868 5867 5867 5867 5868 5867 5868 5868 5868 5868
5890 5888 5886 5885 5883 5882 5880 5878 5877 5875 5874 5873 5872 5870 5870 5870 5869 5868 5868 5867 5866 5866 5866 5865 5866 5865 5865 5865 5865 5864 5864 5863 5863 5863 5863 5862 5862 5863 5863 5863 5863 5864 5864
5889 5887 5885 5883 5882 5880 5878 5877 5875 5873 5872 5870 5870 5869 5868 5867 5867 5867 5865 5864 5864 5863 5862 5861 5861 5861 5860 5860 5860 5860 5859 5859 5859 5858 5858 5858 5858 5858 5859 5859 5859 5859 5860
5887 5886 5884 5882 5880 5878 5876 5874 5873 5871 5870 5868 5867 5866 5865 5864 5864 5863 5862 5861 5860 5859 5858 5857 5857 5856 5856 5855 5855 5855 5855 5854 5854 5854 5854 5853 5854 5854 5854 5854 5854 5854 5855
5885 5884 5882 5880 5878 5876 5874 5873 5871 5869 5867 5866 5865 5863 5863 5862 5860 5860 5859 5858 5856 5855 5854 5853 5853 5852 5851 5851 5850 5850 5849 5849 5849 5849 5849 5849 5849 5849 5849 5849 5849 5849 5849
5883 5881 5879 5878 5876 5874 5872 5870 5868 5866 5864 5862 5861 5860 5859 5858 5857 5856 5855 5854 5852 5851 5850 5849 5848 5847 5846 5845 5845 5844 5844 5844 5844 5844 5843 5843 5843 5843 5843 5843 5843 5843 5843
5879 5878 5876 5874 5872 5871 5869 5867 5865 5863 5861 5860 5858 5857 5855 5854 5853 5852 5850 5849 5848 5847 5845 5844 5843 5842 5841 5840 5839 5839 5839 5838 5838 5838 5837 5837 5837 5837 5837 5837 5837 5837 5837
5876 5874 5872 5870 5869 5867 5865 5863 5861 5860 5858 5856 5854 5852 5851 5849 5847 5846 5845 5844 5842 5841 5840 5839 5837 5836 5835 5834 5834 5833 5833 5832 5831 5831 5830 5830 5830 5830 5830 5831 5831 5831 5831
5872 5870 5868 5866 5864 5862 5861 5859 5857 5855 5853 5851 5849 5847 5846 5844 5842 5841 5839 5838 5837 5836 5835 5833 5831 5830 5829 5828 5828 5827 5826 5826 5824 5824 5823 5823 5823 5823 5823 5824 5824 5824 5824
5867 5865 5863 5862 5859 5857 5855 5854 5852 5850 5848 5846 5844 5842 5840 5838 5836 5835 5833 5831 5830 5829 5828 5826 5825 5824 5823 5822 5821 5820 5820 5819 5818 5817 5816 5816 5815 5815 5816 5816 5816 5817 5817
5862 5860 5858 5856 5854 5852 5850 5848 5846 5844 5842 5840 5838 5836 5834 5832 5830 5828 5826 5824 5823 5821 5820 5819 5818 5816 5815 5814 5813 5812 5812 5811 5810 5809 5809 5808 5808 5808 5808 5808 5808 5808 5809
5856 5854 5852 5850 5848 5846 5844 5842 5840 5838 5836 5834 5832 5829 5828 5825 5824 5821 5819 5818 5816 5814 5812 5811 5810 5808 5807 5806 5805 5804 5803 5802 5802 5801 5800 5800 5799 5799 5799 5799 5799 5800 5800
5850 5848 5846 5844 5842 5839 5837 5835 5833 5831 5829 5827 5825 5823 5820 5818 5816 5814 5812 5810 5808 5806 5805 5803 5801 5800 5799 5798 5796 5795 5794 5793 5792 5792 5791 5790 5790 5790 5790 5790 5791 5791 5791
5843 5841 5839 5837 5835 5832 5830 5828 5826 5824 5822 5820 5817 5815 5813 5811 5809 5807 5805 5803 5801 5798 5797 5795 5793 5792 5790 5789 5787 5786 5785 5784 5783 5782 5781 5781 5781 5780 5781 5781 5781 5782 5782
5835 5833 5831 5829 5827 5825 5823 5821 5819 5816 5814 5812 5810 5808 5805 5803 5801 5799 5797 5795 5792 5790 5788 5786 5785 5783 5781 5780 5778 5777 5776 5775 5773 5772 5772 5772 5771 5771 5771 5771 5772 5772 5772
5828 5825 5823 5821 5819 5817 5815 5813 5811 5809 5807 5804 5802 5800 5798 5796 5794 5791 5789 5786 5784 5782 5780 5778 5777 5775 5773 5771 5769 5768 5767 5766 5764 5764 5763 5762 5761 5761 5761 5761 5762 5762 5762
5820 5817 5815 5813 5811 5809 5807 5805 5802 5801 5798 5796 5794 5792 5790 5788 5785 5783 5780 5778 5776 5774 5772 5770 5768 5766 5764 5762 5761 5759 5757 5756 5755 5754 5753 5753 5752 5751 5751 5751 5752 5752 5753
5811 5809 5807 5805 5803 5801 5799 5796 5794 5792 5790 5788 5786 5784 5782 5780 5777 5775 5772 5770 5768 5765 5763 5761 5759 5757 5755 5753 5751 5750 5748 5747 5745 5744 5743 5743 5742 5742 5742 5742 5742 5743 5743
5803 5801 5798 5796 5794 5792 5790 5788 5785 5783 5782 5780 5778 5776 5774 5771 5769 5766 5764 5762 5759 5757 5755 5752 5750 5748 5746 5744 5742 5740 5739 5737 5736 5735 5733 5733 5733 5733 5733 5733 5733 5733 5733
5795 5792 5790 5788 5785 5783 5781 5779 5777 5775 5773 5771 5769 5767 5765 5762 5760 5757 5755 5753 5751 5749 5746 5743 5741 5739 5737 5735 5732 5731 5729 5728 5726 5725 5724 5723 5723 5722 5723 5723 5723 5723 5724